Radiation Dose at Monitoring Post of Fukushima Daini Nuclear Power Station
Date,Time,MP-1(microSv/h),MP-2(microSv/h),MP-3(microSv/h),MP-4(microSv/h),MP-5(microSv/h),MP-6(microSv/h),MP-7(microSv/h),Wind Direction,Wind Velocity(m/s),Rain
2016/09/28,00:00,0.380,0.231,0.401,0.370,0.358,0.189,0.161,south-southwest,2.3,Yes
2016/09/28,00:10,0.377,0.234,0.399,0.367,0.362,0.190,0.160,southwest,2.5,No
2016/09/28,00:20,0.380,0.232,0.403,0.372,0.358,0.190,0.160,southwest,2.6,No
2016/09/28,00:30,0.378,0.231,0.399,0.371,0.360,0.189,0.160,southwest,3.2,No
2016/09/28,00:40,0.379,0.233,0.402,0.368,0.362,0.191,0.161,southwest,3.1,No
2016/09/28,00:50,0.381,0.232,0.403,0.372,0.359,0.189,0.162,southwest,2.7,No
2016/09/28,01:00,0.379,0.234,0.399,0.367,0.360,0.189,0.159,south-southwest,2.5,No
2016/09/28,01:10,0.380,0.233,0.405,0.369,0.360,0.189,0.160,south-southwest,2.2,No
2016/09/28,01:20,0.380,0.231,0.400,0.371,0.358,0.188,0.161,south-southwest,1.5,No
2016/09/28,01:30,0.378,0.233,0.400,0.368,0.361,0.190,0.161,south-southwest,3.2,No
2016/09/28,01:40,0.380,0.233,0.403,0.371,0.360,0.188,0.161,south-southwest,2.5,No
2016/09/28,01:50,0.379,0.233,0.400,0.370,0.359,0.189,0.160,south-southwest,4.3,No
2016/09/28,02:00,0.379,0.233,0.402,0.369,0.363,0.189,0.161,southwest,4.5,No
2016/09/28,02:10,0.380,0.232,0.403,0.370,0.359,0.189,0.160,west-southwest,3.7,No
2016/09/28,02:20,0.377,0.232,0.399,0.368,0.360,0.190,0.160,west-southwest,1.3,No
2016/09/28,02:30,0.382,0.231,0.403,0.370,0.361,0.188,0.161,southwest,2.3,No
2016/09/28,02:40,0.378,0.232,0.400,0.369,0.357,0.190,0.160,southwest,5.0,No
2016/09/28,02:50,0.378,0.233,0.401,0.368,0.361,0.188,0.160,south-southwest,6.2,No
2016/09/28,03:00,0.381,0.231,0.401,0.370,0.359,0.189,0.160,south-southwest,5.4,No
2016/09/28,03:10,0.378,0.232,0.399,0.367,0.357,0.190,0.160,south-southwest,3.6,No
2016/09/28,03:20,0.378,0.231,0.402,0.369,0.360,0.188,0.161,south-southwest,3.9,No
2016/09/28,03:30,0.379,0.231,0.400,0.370,0.359,0.188,0.160,south-southwest,4.5,No
2016/09/28,03:40,0.377,0.232,0.398,0.366,0.358,0.188,0.160,south-southwest,5.9,No
2016/09/28,03:50,0.379,0.230,0.401,0.371,0.362,0.188,0.161,south-southwest,6.1,No
2016/09/28,04:00,0.379,0.233,0.400,0.370,0.358,0.188,0.159,south-southwest,5.6,No
2016/09/28,04:10,0.376,0.232,0.399,0.366,0.359,0.188,0.160,south-southwest,5.3,No
2016/09/28,04:20,0.380,0.232,0.402,0.371,0.359,0.189,0.159,south-southwest,4.8,No
2016/09/28,04:30,0.377,0.233,0.399,0.367,0.357,0.188,0.161,southwest,3.9,No
2016/09/28,04:40,0.377,0.230,0.399,0.369,0.359,0.189,0.160,south-southwest,2.2,No
2016/09/28,04:50,0.379,0.231,0.403,0.370,0.361,0.188,0.159,southwest,1.4,No
2016/09/28,05:00,0.375,0.232,0.399,0.366,0.357,0.188,0.160,southwest,1.5,No
2016/09/28,05:10,0.377,0.230,0.400,0.370,0.361,0.188,0.160,west-southwest,1.6,No
2016/09/28,05:20,0.379,0.232,0.400,0.369,0.360,0.188,0.160,west,1.2,No
2016/09/28,05:30,0.377,0.231,0.397,0.366,0.356,0.188,0.160,west,2.5,No
2016/09/28,05:40,0.378,0.231,0.403,0.371,0.359,0.188,0.159,west,2.1,No
2016/09/28,05:50,0.378,0.233,0.401,0.369,0.359,0.188,0.160,southwest,1.4,No
2016/09/28,06:00,0.376,0.230,0.398,0.367,0.356,0.189,0.160,-,CALM,No
2016/09/28,06:10,0.380,0.232,0.402,0.371,0.361,0.188,0.159,southwest,1.4,No
2016/09/28,06:20,0.379,0.232,0.399,0.368,0.359,0.188,0.159,west-southwest,1.6,No
2016/09/28,06:30,0.376,0.230,0.398,0.367,0.355,0.188,0.159,west-southwest,2.5,No
2016/09/28,06:40,0.380,0.232,0.401,0.369,0.360,0.189,0.159,southwest,2.9,No
2016/09/28,06:50,0.379,0.233,0.401,0.367,0.361,0.189,0.160,southwest,5.0,No
2016/09/28,07:00,0.376,0.231,0.396,0.366,0.355,0.189,0.161,west-southwest,5.0,No
2016/09/28,07:10,0.377,0.231,0.404,0.370,0.358,0.188,0.161,west-southwest,4.2,No
2016/09/28,07:20,0.379,0.232,0.401,0.368,0.361,0.188,0.159,west-southwest,3.0,No
2016/09/28,07:30,0.376,0.231,0.398,0.366,0.361,0.189,0.159,west-southwest,3.6,No
2016/09/28,07:40,0.376,0.230,0.397,0.368,0.356,0.188,0.158,west-southwest,3.2,No
2016/09/28,07:50,0.380,0.232,0.403,0.370,0.356,0.188,0.160,southwest,4.0,No
2016/09/28,08:00,0.379,0.232,0.403,0.367,0.356,0.189,0.160,west-southwest,5.4,No
2016/09/28,08:10,0.376,0.232,0.398,0.365,0.360,0.189,0.160,southwest,3.5,No
2016/09/28,08:20,0.376,0.231,0.396,0.366,0.362,0.189,0.158,southwest,3.4,No
2016/09/28,08:30,0.379,0.231,0.401,0.370,0.357,0.187,0.160,west-southwest,5.0,No
2016/09/28,08:40,0.381,0.233,0.403,0.369,0.356,0.188,0.160,southwest,4.8,No
2016/09/28,08:50,0.377,0.232,0.401,0.369,0.357,0.189,0.161,west-southwest,5.0,No
2016/09/28,09:00,0.374,0.230,0.398,0.366,0.356,0.188,0.159,west-southwest,5.3,No
2016/09/28,09:10,0.380,0.231,0.396,0.365,0.357,0.189,0.159,west-southwest,4.4,No
2016/09/28,09:20,0.381,0.231,0.398,0.366,0.358,0.188,0.159,west-southwest,3.3,No
2016/09/28,09:30,0.379,0.231,0.402,0.371,0.364,0.188,0.159,west-southwest,2.5,No
2016/09/28,09:40,0.377,0.233,0.402,0.372,0.361,0.188,0.158,west-northwest,1.6,No
2016/09/28,09:50,0.376,0.232,0.401,0.368,0.361,0.189,0.159,west-southwest,2.0,No
2016/09/28,10:00,0.378,0.233,0.398,0.367,0.359,0.190,0.158,west-southwest,1.6,No
2016/09/28,10:10,0.383,0.232,0.398,0.367,0.359,0.189,0.158,west-northwest,0.9,No
2016/09/28,10:20,0.381,0.232,0.396,0.365,0.357,0.188,0.159,northwest,0.8,No
2016/09/28,10:30,0.378,0.231,0.401,0.367,0.358,0.189,0.160,north,1.2,No
2016/09/28,10:40,0.376,0.231,0.404,0.368,0.358,0.190,0.159,north,1.8,No
2016/09/28,10:50,0.376,0.231,0.404,0.373,0.359,0.188,0.159,north,3.1,No
2016/09/28,11:00,0.379,0.231,0.401,0.371,0.359,0.189,0.159,north-northeast,3.3,No
2016/09/28,11:10,0.382,0.231,0.399,0.370,0.357,0.190,0.159,north,2.5,Yes
2016/09/28,11:20,0.381,0.234,0.400,0.369,0.356,0.190,0.160,north-northeast,2.5,No
2016/09/28,11:30,0.378,0.235,0.397,0.368,0.358,0.191,0.161,north-northeast,3.1,No
2016/09/28,11:40,0.377,0.233,0.401,0.367,0.359,0.191,0.161,north-northeast,3.6,Yes
2016/09/28,11:50,0.375,0.232,0.405,0.366,0.360,0.190,0.161,north,3.3,Yes
2016/09/28,12:00,0.381,0.232,0.403,0.369,0.364,0.190,0.160,north,3.9,No
2016/09/28,12:10,0.380,0.231,0.400,0.372,0.365,0.189,0.160,north,3.9,No
2016/09/28,12:20,0.382,0.231,0.399,0.371,0.363,0.189,0.159,north-northeast,2.3,No
2016/09/28,12:30,0.377,0.234,0.398,0.370,0.362,0.189,0.159,northeast,2.4,No
2016/09/28,12:40,0.376,0.235,0.397,0.369,0.360,0.189,0.158,northeast,1.0,Yes
2016/09/28,12:50,0.376,0.232,0.401,0.367,0.359,0.189,0.160,north-northeast,1.5,No
2016/09/28,13:00,0.381,0.232,0.405,0.365,0.359,0.190,0.162,north,0.8,No
2016/09/28,13:10,0.383,0.231,0.403,0.371,0.357,0.191,0.160,north,1.6,Yes
2016/09/28,13:20,0.379,0.230,0.399,0.370,0.360,0.190,0.160,north,2.3,Yes
2016/09/28,13:30,0.376,0.233,0.396,0.368,0.360,0.189,0.159,north-northeast,2.4,Yes
2016/09/28,13:40,0.379,0.233,0.403,0.366,0.360,0.190,0.161,north-northeast,1.0,Yes
2016/09/28,13:50,0.380,0.232,0.404,0.367,0.357,0.189,0.161,north-northeast,3.3,Yes
2016/09/28,14:00,0.378,0.232,0.400,0.371,0.358,0.190,0.160,north-northeast,2.6,Yes
2016/09/28,14:10,0.376,0.232,0.398,0.368,0.362,0.188,0.158,north-northeast,1.6,Yes
2016/09/28,14:20,0.378,0.232,0.401,0.366,0.359,0.188,0.161,northeast,0.7,Yes
2016/09/28,14:30,0.380,0.233,0.404,0.369,0.359,0.189,0.161,east,1.0,Yes
2016/09/28,14:40,0.380,0.230,0.399,0.371,0.356,0.190,0.160,south-southeast,1.2,Yes
2016/09/28,14:50,0.375,0.233,0.397,0.367,0.361,0.188,0.159,-,CALM,Yes
2016/09/28,15:00,0.380,0.233,0.402,0.365,0.358,0.189,0.160,south,1.8,Yes
2016/09/28,15:10,0.380,0.231,0.402,0.369,0.357,0.189,0.161,south-southeast,1.9,Yes
2016/09/28,15:20,0.377,0.231,0.398,0.368,0.357,0.189,0.159,south,2.1,Yes
2016/09/28,15:30,0.377,0.233,0.397,0.366,0.362,0.188,0.160,-,CALM,Yes
2016/09/28,15:40,0.380,0.230,0.403,0.367,0.359,0.189,0.161,east-northeast,1.0,Yes
2016/09/28,15:50,0.376,0.231,0.400,0.370,0.356,0.188,0.159,southeast,1.2,Yes
2016/09/28,16:00,0.375,0.233,0.397,0.367,0.358,0.189,0.159,north-northeast,0.9,No
2016/09/28,16:10,0.380,0.231,0.398,0.364,0.360,0.188,0.161,-,CALM,No
2016/09/28,16:20,0.378,0.229,0.401,0.368,0.358,0.188,0.159,-,CALM,No
2016/09/28,16:30,0.375,0.232,0.398,0.367,0.356,0.188,0.158,north,1.2,No
2016/09/28,16:40,0.375,0.232,0.395,0.364,0.360,0.187,0.160,north-northeast,0.5,No
2016/09/28,16:50,0.380,0.230,0.401,0.367,0.359,0.189,0.160,northeast,0.8,No
2016/09/28,17:00,0.376,0.232,0.401,0.368,0.357,0.189,0.159,northeast,0.7,No
2016/09/28,17:10,0.374,0.232,0.397,0.366,0.356,0.188,0.159,north-northeast,1.2,No
2016/09/28,17:20,0.380,0.230,0.395,0.366,0.359,0.188,0.160,north-northeast,1.4,No
2016/09/28,17:30,0.379,0.231,0.403,0.369,0.357,0.188,0.158,north-northeast,2.2,No
2016/09/28,17:40,0.376,0.232,0.399,0.368,0.354,0.188,0.159,northeast,0.7,No
2016/09/28,17:50,0.375,0.231,0.396,0.364,0.360,0.187,0.160,north-northeast,1.6,No
2016/09/28,18:00,0.379,0.231,0.399,0.368,0.359,0.188,0.158,northeast,0.8,No
2016/09/28,18:10,0.376,0.232,0.400,0.367,0.357,0.189,0.158,north-northeast,0.5,No
2016/09/28,18:20,0.374,0.231,0.398,0.364,0.356,0.188,0.159,north,1.3,No
2016/09/28,18:30,0.378,0.231,0.397,0.367,0.361,0.188,0.159,north-northeast,0.8,No
2016/09/28,18:40,0.378,0.233,0.401,0.366,0.357,0.189,0.158,-,CALM,No
2016/09/28,18:50,0.374,0.230,0.400,0.365,0.355,0.187,0.160,-,CALM,No
2016/09/28,19:00,0.379,0.230,0.396,0.367,0.360,0.187,0.160,-,CALM,No
2016/09/28,19:10,0.378,0.233,0.401,0.369,0.359,0.189,0.158,-,CALM,Yes
2016/09/28,19:20,0.375,0.232,0.401,0.366,0.355,0.188,0.160,-,CALM,Yes
2016/09/28,19:30,0.379,0.231,0.398,0.365,0.359,0.189,0.160,northeast,0.7,Yes
2016/09/28,19:40,0.380,0.232,0.400,0.369,0.359,0.191,0.159,-,CALM,Yes
2016/09/28,19:50,0.376,0.233,0.401,0.368,0.357,0.189,0.161,-,CALM,Yes
2016/09/28,20:00,0.379,0.233,0.400,0.365,0.359,0.190,0.162,north,1.9,Yes
2016/09/28,20:10,0.381,0.234,0.400,0.370,0.361,0.190,0.160,northwest,0.7,Yes
2016/09/28,20:20,0.378,0.234,0.403,0.369,0.359,0.190,0.162,-,CALM,Yes
2016/09/28,20:30,0.378,0.233,0.401,0.366,0.358,0.190,0.161,-,CALM,Yes
2016/09/28,20:40,0.381,0.236,0.397,0.370,0.362,0.190,0.160,-,CALM,Yes
2016/09/28,20:50,0.377,0.232,0.404,0.368,0.357,0.190,0.161,-,CALM,No
2016/09/28,21:00,0.378,0.233,0.401,0.364,0.358,0.189,0.162,north,0.6,No
2016/09/28,21:10,0.381,0.233,0.396,0.368,0.360,0.189,0.159,-,CALM,No
2016/09/28,21:20,0.377,0.231,0.401,0.366,0.357,0.188,0.159,-,CALM,Yes
2016/09/28,21:30,0.377,0.232,0.398,0.364,0.357,0.188,0.161,-,CALM,Yes
2016/09/28,21:40,0.379,0.232,0.396,0.368,0.360,0.188,0.159,west-northwest,0.5,No
2016/09/28,21:50,0.376,0.231,0.401,0.367,0.356,0.187,0.159,-,CALM,No
2016/09/28,22:00,0.376,0.232,0.399,0.365,0.356,0.187,0.159,south,1.7,No
2016/09/28,22:10,0.379,0.231,0.395,0.367,0.358,0.187,0.158,south,1.0,No
2016/09/28,22:20,0.375,0.231,0.399,0.366,0.355,0.187,0.159,-,CALM,No
2016/09/28,22:30,0.376,0.232,0.398,0.364,0.356,0.187,0.158,-,CALM,Yes
2016/09/28,22:40,0.379,0.232,0.396,0.368,0.359,0.187,0.158,-,CALM,Yes
2016/09/28,22:50,0.376,0.230,0.401,0.367,0.357,0.187,0.159,-,CALM,Yes
2016/09/28,23:00,0.376,0.233,0.399,0.365,0.358,0.187,0.159,-,CALM,Yes
2016/09/28,23:10,0.379,0.233,0.396,0.367,0.359,0.188,0.159,south,2.5,Yes
2016/09/28,23:20,0.376,0.230,0.400,0.366,0.356,0.187,0.159,south-southwest,3.1,Yes
2016/09/28,23:30,0.377,0.232,0.400,0.365,0.359,0.188,0.159,south,2.4,No
2016/09/28,23:40,0.377,0.232,0.396,0.367,0.358,0.188,0.159,south,2.4,Yes
2016/09/28,23:50,0.375,0.230,0.401,0.364,0.355,0.188,0.159,south-southwest,1.3,No
